This demonstration page uses our WeatherBlox Daily Observations layout. Learn more.

Left ArrowRight Arrow

34.16533, -84.80231

Hourly Observations for August 29, 2020

Temp ( °F °C ) Dew Point ( °F °C ) Humidity (%) Winds ( mph kmh ) Pressure ( in mb ) Visibility ( mi km ) Precip ( " mm )
12:53 am 00:53 Partly Cloudy 77 25 71 21.7 82 82 SSW 5 7 29.87 1011 10 16 0.00 0.00
1:04 am 01:04 Mostly Cloudy 76 24.4 71 21.7 85 85 VRB 3 6 29.88 1012 10 16 0.00 0.00
1:33 am 01:33 Mostly Clear 76 24.4 71 21.7 85 85 VRB 5 7 29.87 1012 10 16 0.00 0.00
1:53 am 01:53 Partly Cloudy 76 24.4 71 21.7 85 85 VRB 6 9 29.85 1011 10 16 0.00 0.00
2:43 am 02:43 Mostly Cloudy 77 25 71 21.7 82 82 VRB 5 7 29.87 1011 10 16 0.00 0.00
2:53 am 02:53 Cloudy 77 25 71 21.7 82 82 VRB 3 6 29.85 1011 10 16 0.00 0.00
3:41 am 03:41 Partly Cloudy 77 25 71 21.7 82 82 SSW 7 11 29.85 1011 10 16 0.00 0.00
3:53 am 03:53 Mostly Clear 78 25.6 71 21.7 79 79 VRB 6 9 29.83 1010 10 16 0.00 0.00
4:39 am 04:39 Mostly Cloudy 78 25.6 71 21.7 79 79 VRB 5 7 29.84 1010 10 16 0.00 0.00
4:53 am 04:53 Cloudy with Light Rain 78 25.6 71 21.7 79 79 VRB 5 7 29.83 1010 10 16 0.00 0.00
5:02 am 05:02 Cloudy 78 25.6 71 21.7 79 79 VRB 3 6 29.84 1010 10 16 0.00 0.00
5:53 am 05:53 Mostly Cloudy 78 25.6 71 21.7 79 79 VRB 5 7 29.83 1010 10 16 0.00 0.00
6:00 am 06:00 Mostly Cloudy 78 25.6 71 21.7 79 79 SSW 5 7 29.84 1010 10 16 0.00 0.00
6:53 am 06:53 Cloudy 78 25.6 70 21.1 76 76 VRB 5 7 29.84 1010 10 16 0.00 0.00
7:53 am 07:53 Cloudy 78 25.6 71 21.7 79 79 VRB 5 7 29.85 1011 10 16 0.00 0.00
8:04 am 08:04 Cloudy 78 25.6 71 21.7 79 79 VRB 3 6 29.86 1011 10 16 0.00 0.00
8:53 am 08:53 Cloudy 78 25.6 71 21.7 79 79 VRB 3 6 29.86 1011 10 16 0.00 0.00
9:06 am 09:06 Cloudy 79 26.1 71 21.7 77 77 Calm 29.87 1011 10 16 0.00 0.00
9:25 am 09:25 Cloudy 79 26.1 71 21.7 77 77 VRB 3 6 29.88 1012 10 16 0.00 0.00
9:35 am 09:35 Mostly Cloudy 80 26.7 72 22.2 76 76 VRB 3 6 29.88 1012 10 16 0.00 0.00
9:53 am 09:53 Mostly Cloudy 81 27.2 72 22.2 74 74 Calm 29.87 1011 10 16 0.00 0.00
10:53 am 10:53 Cloudy 80 26.7 72 22.2 76 76 VRB 3 6 29.88 1012 10 16 0.00 0.00
11:53 am 11:53 Mostly Cloudy 83 28.3 72 22.2 70 70 VRB 5 7 29.88 1012 10 16 0.00 0.00
12:42 pm 12:42 Mostly Cloudy 84 28.9 71 21.7 65 65 VRB 5 7 29.87 1012 10 16 0.00 0.00
12:53 pm 12:53 Mostly Cloudy 87 30.6 72 22.2 61 61 VRB 6 9 29.86 1011 10 16 0.00 0.00
1:53 pm 13:53 Partly Cloudy 87 30.6 72 22.2 61 61 VRB 6 9 29.86 1011 10 16 0.00 0.00
2:53 pm 14:53 Mostly Sunny 90 32.2 73 22.8 58 58 VRB 3 6 29.84 1011 10 16 0.00 0.00
3:53 pm 15:53 Mostly Cloudy 88 31.1 71 21.7 57 57 VRB 6 9 29.83 1010 10 16 0.00 0.00
4:53 pm 16:53 Mostly Sunny 91 32.8 72 22.2 54 54 VRB 3 6 29.81 1010 10 16 0.00 0.00
5:53 pm 17:53 Sunny 90 32.2 71 21.7 54 54 VRB 3 6 29.80 1009 10 16 0.00 0.00
6:53 pm 18:53 Sunny 84 28.9 76 24.4 77 77 Calm 29.80 1009 10 16 0.00 0.00
7:53 pm 19:53 Mostly Cloudy 83 28.3 75 23.9 77 77 Calm 29.81 1010 10 16 0.00 0.00
8:53 pm 20:53 Partly Cloudy 82 27.8 74 23.3 77 77 Calm 29.83 1010 10 16 0.00 0.00
9:53 pm 21:53 Partly Cloudy 79 26.1 75 23.9 88 88 Calm 29.85 1011 10 16 0.00 0.00
10:53 pm 22:53 Clear 79 26.1 74 23.3 85 85 Calm 29.84 1010 10 16 0.00 0.00
11:53 pm 23:53 Clear 79 26.1 74 23.3 85 85 Calm 29.82 1010 10 16 0.00 0.00

Powered by AerisWeather